Погода в Таразе

Поиск расширенной информации на нашем сайте:

Полезная информация:

Новости сайта



14.11.2019
Обновлён Долгосрочный прогноз погоды по России и другим странам хСССР на ноябрь-декабрь 2019 года.
Опубликованы прогностические карты: Предварительный прогноз на декабрь 2019 года, Предварительный прогноз на январь 2020 года, Предварительная схема синоптических процессов на декабрь 2019 г..

11.11.2019
Обновлены Долгосрочный прогноз погоды по России и другим странам хСССР на ноябрь-декабрь 2019 года и Предварительный прогноз на зиму 2019/2020 годов

04.11.2019
Опубликован Долгосрочный прогноз погоды по России и другим странам хСССР на ноябрь 2019 года
Сравнение прогнозируемой аномалии приземной температуры воздуха на ноябрь 2019 года по разным моделям
Предварительный прогноз на зиму 2019/2020 года




Погода в Таразе - сегодня

Время (UTC), дата Ветер
(°,м/с) 
Видим.   Явления Облачность Т
(°С)
Тd
(°С)
f(%) Тe
(°С)
Pmin
(гПа)
dP
(гПа)
Po
(мм)
O2
(г/м3)
Тmin Tmax R s Состояние
почвы
00 20.11.19 тихо ()   10 км    6/3 1000 м средняя 
[Sc diur, vesp|Ac lent]
-3.3 -8.1 69 -3  1024.4  1.5  708  289           
03 20.11.19 тихо ()   20000 м    8/6 1000 м средняя, верхняя 
[Sc diur, vesp|Ac lent|Ci fib]
-2.9 -6.4 77 -3  1024.3  708  289           
06 20.11.19 010 (С) 20000 м    10/0 средняя 
[Ac As]
-1.2 -6.3 68 -1  1024.4  -0.3  708  287  -3.7         
09 20.11.19 160 (Ю) 4000 м  слаб. снег  10/10 1000 м 
[Sc diur, vesp]
+0 -3.7 76 -1  1021.5  -1.4  707  285           
12 20.11.19 020 (С) 4000 м  слаб. снег  10/10 600 м 
[Ns]
-2.2 -2.2 100 -3  1023.5  1.2  708  288           
15 20.11.19 тихо ()   4000 м  слаб. снег  10/10 600 м 
[Ns]
-2.3 -2.3 100 -2  1024.2  0.7  708  288    +0.2     
18 20.11.19 тихо ()   4000 м  слаб. снег  10/10 600 м 
[Ns]
-2.8 -2.8 100 -3  1024.6  0.2  708  289    +0.2     
21 20.11.19 020 (С) 4000 м  слаб. снег  10/10 600 м 
[Ns]
-3.2 -3.2 100 -3  1025  0.2  708  289           
00 21.11.19 030 (СВ) 4000 м  слаб. снег  10/10 600 м 
[Ns]
-3.8 -3.8 100 -3  1026.7  1.5  710  290           
03 21.11.19 тихо ()   4000 м  слаб. снег  10/10 600 м 
[Ns]
-4.1 -4.1 100 -4  1028.4  1.4  711  291      11  13  равномерный
сухой снег
100% 
06 21.11.19 тихо ()   4000 м  слаб. снег  10/10 600 м 
[Ns]
-4.2 -4.2 100 -4  1030.5  1.9  712  292  -4.2    11     
09 21.11.19 020 (С) 4000 м  слаб. снег  10/10 600 м 
[Ns]
-4.4 -4.4 100 -6  1030.3  -0.2  712  292           
12 21.11.19 020 (С) 4000 м  слаб. снег  10/10 600 м 
[Ns]
-6.6 -6.6 100 -8  1032.2  1.1  713  295           
15 21.11.19 010 (С) 4000 м  слаб. снег  10/10 600 м 
[Ns]
-7 -7 100 -7  1032.8  0.4  713  296    -3.3     
18 21.11.19 тихо ()   10 км  в посл. час снег  10/10 600 м 
[Ns]
-7.3 -7.3 100 -7  1033.3  0.3  713  296    -3.3     
21 21.11.19 тихо ()   10 км    10/10 1000 м 
[Sc diur, vesp]
-7.4 -7.4 100 -7  1033  -0.3  713  296           
00 22.11.19 тихо ()   10 км    10/10 1000 м 
[Sc diur, vesp]
-7.2 -7.2 100 -7  1032.4  -0.4  713  296           
03 22.11.19 340 (С) 20000 м    10/0 средняя 
[As op]
-7.9 -7.9 100 -8  1033.5  0.7  713  297      0.3  14  равномерный
сухой снег
100% 
06 22.11.19 тихо ()   20000 м    10/0 средняя 
[As op]
-6.6 -6.6 100 -7  1034  0.9  714  295  -7.9    0.3     
09 22.11.19 тихо ()   20000 м    10/0 средняя 
[As op]
-6.2 -6.2 100 -6  1034.6  0.6  714  295           
12 22.11.19 тихо ()   4000 м  слаб. снег  10/0 средняя 
[As op]
-6.8 -6.8 100 -7  1035.9  1.1  715  296           
15 22.11.19 тихо ()   10 км  слаб. снег  10/0 средняя 
[As op]
-6.6 -6.6 100 -7  1036.1  0.2  715  296    -5.3  0.2     
18 22.11.19 тихо ()   10 км  в посл. час снег  10/0 средняя 
[Ac lent]
-5.9 -5.9 100 -6  1035.2  -0.5  715  295    -5.3  0.2     
21 22.11.19 тихо ()   10 км    10/10 1000 м 
[Sc diur, vesp]
-4.1 -4.1 100 -4  1035.1  0.3  715  293           
00 23.11.19 тихо ()   4000 м  слаб. снег  10/10 600 м 
[Ns]
-2.8 -2.8 100 -3  1034.5  -0.1  715  291           
Время (UTC), дата Ветер
(°,м/с) 
Видим.   Явления Облачность Т
(°С)
Тd
(°С)
f(%) Тe
(°С)
Pmin
(гПа)
dP
(гПа)
Po
(мм)
O2
(г/м3)
Тmin Tmax R s Состояние
почвы

Для получения пояснительной информации подведите курсор к названию столбца.

ПОГОДА в Таразе - архив

Всё, что Вы хотите узнать о погоде в Таразе - удобно и подробно!

Выберите нужную дату (начиная с 1 января 2019* года) и нажмите кнопку "Найти".
Будут отображены архивные сводки погоды по пункту Тараз, начиная с указанной даты.


Отображать данные в формате CSV (для использования в таблицах Excel)


Внимание! Наш архив погоды предназначен исключительно для личного некоммерческого использования в познавательных целях. Если Вам необходимы официальные справки о состоянии погоды (для производственных, юридических, коммерческих и т.п. целей), обращайтесь в органы Росгидромета.

*Примечание: данная дата относится к архиву по метеостанциям СССР (Россия, СНГ, Балтия).
Архив по метеостанциям Зарубежной Европы и Азии (кроме Китая) хранится 10 дней, по другим регионам земного шара (Китай, Африка, Америка, Австралия, Океания) - 1 день.

Тараз - район местоположения метеостанции


Название, широта, долгота, высота метеостанции:
Тараз (город) 42.9°ш. 71.4°д. 651 м над ур. моря [Казахстан]

Дополнительная информация

В oтличие oт бoльшинства пoгoдных сайтoв мы публикуем пoдрoбную метеoинфoрмацию в детальнoм прoфессиoнальнoм фoрмате.

Характеристики температуры и влажнoсти вoздуха измеряются на высoте 2 м в тени вдали oт зданий и деревьев.
Скoрoсть ветра измеряется на высoте 10 м (на урoвне рoста челoвека скoрoсть ветра ниже в 1.5-2 раза). Если метеoстанция нахoдится в гoрoде или в лесу, тo скoрoсть ветра занижена на 2-4 м/с пo сравнению с oткрытым местoм. Скoрoсть ветра над акватoриями крупных рек и oзёр, а также на вершинах хoлмoв на 2-5 м/с выше, чем в oбычных услoвиях.
Атмoсфернoе давление в разных тoчках местнoсти мoжет значительнo oтличаться oт давления на метеoстанции, в зависимoсти oт услoвий рельефа (при пoдъёме на 10 м давление пoнижается примернo на 1 мм рт.ст.).